Time,TemperatureF,DewpointF,PressureIn,WindDirection,WindDirectionDegrees,WindSpeedMPH,WindSpeedGustMPH,Humidity,HourlyPrecipIn,Conditions,Clouds,dailyrainin,SoftwareType,DateUTC
2013-01-23 00:00:00,12.9,-3.0,29.97,North,359,2.0,-999.0,49,-99.99,,,0.02,weatherlink.com 1.10,2013-01-23 05:00:00,
2013-01-23 00:15:00,12.8,-2.0,29.96,NNE,27,2.0,-999.0,51,-99.99,,,0.02,weatherlink.com 1.10,2013-01-23 05:15:00,
2013-01-23 00:30:00,12.4,-2.0,29.96,North,10,2.0,-999.0,52,-99.99,,,0.00,weatherlink.com 1.10,2013-01-23 05:30:00,
2013-01-23 00:45:00,12.4,-2.0,29.96,North,358,1.0,-999.0,53,-99.99,,,0.00,weatherlink.com 1.10,2013-01-23 05:45:00,
2013-01-23 01:00:00,12.4,-2.0,29.96,NNE,26,0.0,-999.0,53,-99.99,,,0.00,weatherlink.com 1.10,2013-01-23 06:00:00,
2013-01-23 01:15:00,12.4,-2.0,29.96,North,3,2.0,-999.0,54,-99.99,,,0.00,weatherlink.com 1.10,2013-01-23 06:15:00,
2013-01-23 01:30:00,12.3,-1.0,29.96,North,0,11.0,-999.0,56,-99.99,,,0.00,weatherlink.com 1.10,2013-01-23 06:30:00,
2013-01-23 01:45:00,12.1,-1.0,29.98,North,6,0.0,-999.0,57,-99.99,,,0.00,weatherlink.com 1.10,2013-01-23 06:45:00,
2013-01-23 02:01:00,11.9,0.0,29.98,NW,314,3.0,-999.0,58,-99.99,,,0.00,weatherlink.com 1.10,2013-01-23 07:01:00,
2013-01-23 02:16:00,11.6,0.0,29.98,NNE,12,2.0,-999.0,59,-99.99,,,0.00,weatherlink.com 1.10,2013-01-23 07:16:00,
2013-01-23 02:31:00,11.4,-1.0,29.98,North,2,2.0,-999.0,59,-99.99,,,0.00,weatherlink.com 1.10,2013-01-23 07:31:00,
2013-01-23 02:46:00,11.4,0.0,29.99,West,267,3.0,-999.0,60,-99.99,,,0.00,weatherlink.com 1.10,2013-01-23 07:46:00,
2013-01-23 03:46:00,10.9,-4.0,29.99,NNW,339,6.0,-999.0,52,-99.99,,,0.00,weatherlink.com 1.10,2013-01-23 08:46:00,
2013-01-23 04:01:00,10.7,-4.0,29.99,North,3,1.0,-999.0,52,-99.99,,,0.00,weatherlink.com 1.10,2013-01-23 09:01:00,
2013-01-23 04:16:00,10.4,-4.0,29.99,NNW,331,0.0,-999.0,53,-99.99,,,0.00,weatherlink.com 1.10,2013-01-23 09:16:00,
2013-01-23 05:16:00,9.9,-5.0,30.00,NE,54,0.0,-999.0,50,-99.99,,,0.00,weatherlink.com 1.10,2013-01-23 10:16:00,
2013-01-23 05:32:00,9.9,-5.0,30.00,North,7,3.0,-999.0,50,-99.99,,,0.00,weatherlink.com 1.10,2013-01-23 10:32:00,
2013-01-23 05:47:00,9.9,-6.0,30.01,NNE,27,0.0,-999.0,48,-99.99,,,0.00,weatherlink.com 1.10,2013-01-23 10:47:00,
2013-01-23 06:02:00,9.7,-7.0,30.01,NE,36,1.0,-999.0,48,-99.99,,,0.00,weatherlink.com 1.10,2013-01-23 11:02:00,
2013-01-23 06:17:00,9.5,-8.0,30.02,NNE,12,5.0,-999.0,46,-99.99,,,0.00,weatherlink.com 1.10,2013-01-23 11:17:00,
2013-01-23 06:32:00,9.3,-7.0,30.02,NE,53,0.0,-999.0,47,-99.99,,,0.00,weatherlink.com 1.10,2013-01-23 11:32:00,
2013-01-23 06:47:00,9.2,-7.0,30.02,NNE,22,0.0,-999.0,48,-99.99,,,0.00,weatherlink.com 1.10,2013-01-23 11:47:00,
2013-01-23 07:02:00,9.0,-6.0,30.01,NNE,16,1.0,-999.0,50,-99.99,,,0.00,weatherlink.com 1.10,2013-01-23 12:02:00,
2013-01-23 07:17:00,8.8,-6.0,30.02,NNE,29,4.0,-999.0,50,-99.99,,,0.00,weatherlink.com 1.10,2013-01-23 12:17:00,
2013-01-23 07:32:00,9.0,-7.0,30.02,NNE,16,3.0,-999.0,49,-99.99,,,0.00,weatherlink.com 1.10,2013-01-23 12:32:00,
2013-01-23 08:02:00,9.5,-7.0,30.03,NNW,339,3.0,-999.0,47,-99.99,,,0.00,weatherlink.com 1.10,2013-01-23 13:02:00,
2013-01-23 08:17:00,10.0,-9.0,30.03,NNE,23,5.0,-999.0,42,-99.99,,,0.00,weatherlink.com 1.10,2013-01-23 13:17:00,
2013-01-23 08:32:00,10.2,-11.0,30.03,North,352,8.0,-999.0,38,-99.99,,,0.00,weatherlink.com 1.10,2013-01-23 13:32:00,
2013-01-23 08:47:00,10.7,-10.0,30.04,NNW,331,8.0,-999.0,38,-99.99,,,0.00,weatherlink.com 1.10,2013-01-23 13:47:00,
2013-01-23 09:03:00,10.5,-12.0,30.04,North,6,10.0,-999.0,36,-99.99,,,0.00,weatherlink.com 1.10,2013-01-23 14:03:00,
2013-01-23 09:18:00,10.7,-11.0,30.05,North,10,8.0,-999.0,36,-99.99,,,0.00,weatherlink.com 1.10,2013-01-23 14:18:00,
2013-01-23 09:33:00,11.2,-11.0,30.04,North,7,8.0,-999.0,36,-99.99,,,0.00,weatherlink.com 1.10,2013-01-23 14:33:00,
2013-01-23 09:48:00,11.4,-12.0,30.04,North,5,14.0,-999.0,34,-99.99,,,0.00,weatherlink.com 1.10,2013-01-23 14:48:00,
2013-01-23 10:03:00,11.6,-11.0,30.04,North,3,7.0,-999.0,35,-99.99,,,0.00,weatherlink.com 1.10,2013-01-23 15:03:00,
2013-01-23 10:18:00,11.9,-12.0,30.04,North,7,9.0,-999.0,34,-99.99,,,0.00,weatherlink.com 1.10,2013-01-23 15:18:00,
2013-01-23 10:33:00,12.4,-11.0,30.04,NNW,341,7.0,-999.0,34,-99.99,,,0.00,weatherlink.com 1.10,2013-01-23 15:33:00,
2013-01-23 10:48:00,12.8,-11.0,30.03,North,358,12.0,-999.0,34,-99.99,,,0.00,weatherlink.com 1.10,2013-01-23 15:48:00,
2013-01-23 11:03:00,12.8,-11.0,30.02,NNE,17,6.0,-999.0,34,-99.99,,,0.00,weatherlink.com 1.10,2013-01-23 16:03:00,
2013-01-23 11:18:00,13.3,-10.0,30.02,NNW,331,12.0,-999.0,35,-99.99,,,0.00,weatherlink.com 1.10,2013-01-23 16:18:00,
2013-01-23 11:33:00,13.3,-10.0,30.01,North,9,2.0,-999.0,34,-99.99,,,0.00,weatherlink.com 1.10,2013-01-23 16:33:00,
2013-01-23 11:48:00,14.0,-10.0,30.00,NNW,329,7.0,-999.0,33,-99.99,,,0.00,weatherlink.com 1.10,2013-01-23 16:48:00,
2013-01-23 12:03:00,13.8,-10.0,30.00,NNE,27,7.0,-999.0,33,-99.99,,,0.00,weatherlink.com 1.10,2013-01-23 17:03:00,
2013-01-23 12:18:00,14.3,-9.0,30.00,NNE,14,7.0,-999.0,35,-99.99,,,0.00,weatherlink.com 1.10,2013-01-23 17:18:00,
2013-01-23 12:34:00,14.4,-10.0,29.98,NNE,16,5.0,-999.0,33,-99.99,,,0.00,weatherlink.com 1.10,2013-01-23 17:34:00,
2013-01-23 12:49:00,14.8,-9.0,29.98,NNW,346,5.0,-999.0,34,-99.99,,,0.00,weatherlink.com 1.10,2013-01-23 17:49:00,
2013-01-23 13:04:00,14.6,-10.0,29.97,North,358,8.0,-999.0,33,-99.99,,,0.00,weatherlink.com 1.10,2013-01-23 18:04:00,
2013-01-23 13:19:00,14.8,-10.0,29.97,North,10,5.0,-999.0,32,-99.99,,,0.00,weatherlink.com 1.10,2013-01-23 18:19:00,
2013-01-23 13:34:00,15.2,-9.0,29.97,NNE,14,6.0,-999.0,34,-99.99,,,0.00,weatherlink.com 1.10,2013-01-23 18:34:00,
2013-01-23 13:49:00,15.4,-9.0,29.97,NNE,27,5.0,-999.0,33,-99.99,,,0.00,weatherlink.com 1.10,2013-01-23 18:49:00,
2013-01-23 14:04:00,14.9,-9.0,29.97,North,6,5.0,-999.0,34,-99.99,,,0.00,weatherlink.com 1.10,2013-01-23 19:04:00,
2013-01-23 14:19:00,15.2,-10.0,29.96,North,353,5.0,-999.0,32,-99.99,,,0.00,weatherlink.com 1.10,2013-01-23 19:19:00,
2013-01-23 14:34:00,14.9,-10.0,29.97,North,7,7.0,-999.0,32,-99.99,,,0.00,weatherlink.com 1.10,2013-01-23 19:34:00,
2013-01-23 14:49:00,15.2,-9.0,29.97,North,358,6.0,-999.0,33,-99.99,,,0.00,weatherlink.com 1.10,2013-01-23 19:49:00,
2013-01-23 15:04:00,14.8,-11.0,29.98,NNW,348,16.0,-999.0,31,-99.99,,,0.00,weatherlink.com 1.10,2013-01-23 20:04:00,
2013-01-23 15:19:00,14.6,-10.0,29.98,NNW,343,6.0,-999.0,33,-99.99,,,0.00,weatherlink.com 1.10,2013-01-23 20:19:00,
2013-01-23 15:34:00,14.4,-10.0,29.98,NNE,14,2.0,-999.0,33,-99.99,,,0.00,weatherlink.com 1.10,2013-01-23 20:34:00,
2013-01-23 15:50:00,14.1,-8.0,29.98,North,7,2.0,-999.0,36,-99.99,,,0.00,weatherlink.com 1.10,2013-01-23 20:50:00,
2013-01-23 16:05:00,14.1,-8.0,29.98,North,9,4.0,-999.0,37,-99.99,,,0.00,weatherlink.com 1.10,2013-01-23 21:05:00,
2013-01-23 16:35:00,14.0,-11.0,29.98,North,9,7.0,-999.0,32,-99.99,,,0.00,weatherlink.com 1.10,2013-01-23 21:35:00,
2013-01-23 16:50:00,13.8,-10.0,29.99,North,349,11.0,-999.0,33,-99.99,,,0.00,weatherlink.com 1.10,2013-01-23 21:50:00,
2013-01-23 17:05:00,13.5,-11.0,29.99,North,7,4.0,-999.0,33,-99.99,,,0.00,weatherlink.com 1.10,2013-01-23 22:05:00,
2013-01-23 17:20:00,13.1,-9.0,29.99,NNE,23,2.0,-999.0,37,-99.99,,,0.00,weatherlink.com 1.10,2013-01-23 22:20:00,
2013-01-23 17:35:00,12.8,-10.0,30.00,North,3,1.0,-999.0,35,-99.99,,,0.00,weatherlink.com 1.10,2013-01-23 22:35:00,
2013-01-23 18:05:00,12.1,-10.0,30.01,North,0,3.0,-999.0,36,-99.99,,,0.00,weatherlink.com 1.10,2013-01-23 23:05:00,
2013-01-23 18:20:00,11.9,-9.0,30.01,NW,308,0.0,-999.0,38,-99.99,,,0.00,weatherlink.com 1.10,2013-01-23 23:20:00,
2013-01-23 18:35:00,11.7,-10.0,30.01,NNE,13,3.0,-999.0,37,-99.99,,,0.00,weatherlink.com 1.10,2013-01-23 23:35:00,
2013-01-23 18:50:00,11.7,-10.0,30.01,North,3,0.0,-999.0,37,-99.99,,,0.00,weatherlink.com 1.10,2013-01-23 23:50:00,
2013-01-23 19:20:00,11.1,-11.0,30.02,North,9,1.0,-999.0,37,-99.99,,,0.00,weatherlink.com 1.10,2013-01-24 00:20:00,
2013-01-23 19:36:00,10.7,-11.0,30.02,WNW,302,5.0,-999.0,37,-99.99,,,0.00,weatherlink.com 1.10,2013-01-24 00:36:00,
2013-01-23 19:51:00,10.7,-10.0,30.02,North,355,2.0,-999.0,38,-99.99,,,0.00,weatherlink.com 1.10,2013-01-24 00:51:00,
2013-01-23 20:21:00,10.5,-12.0,30.02,NNE,19,2.0,-999.0,36,-99.99,,,0.00,weatherlink.com 1.10,2013-01-24 01:21:00,
2013-01-23 20:36:00,10.4,-11.0,30.02,North,5,3.0,-999.0,38,-99.99,,,0.00,weatherlink.com 1.10,2013-01-24 01:36:00,
2013-01-23 20:51:00,10.0,-10.0,30.02,NNW,342,2.0,-999.0,39,-99.99,,,0.00,weatherlink.com 1.10,2013-01-24 01:51:00,
2013-01-23 21:06:00,9.7,-11.0,30.03,North,355,5.0,-999.0,39,-99.99,,,0.00,weatherlink.com 1.10,2013-01-24 02:06:00,
2013-01-23 21:21:00,9.5,-10.0,30.03,North,3,2.0,-999.0,41,-99.99,,,0.00,weatherlink.com 1.10,2013-01-24 02:21:00,
2013-01-23 21:36:00,9.3,-11.0,30.02,North,358,4.0,-999.0,40,-99.99,,,0.00,weatherlink.com 1.10,2013-01-24 02:36:00,
2013-01-23 21:51:00,9.2,-11.0,30.03,North,9,1.0,-999.0,40,-99.99,,,0.00,weatherlink.com 1.10,2013-01-24 02:51:00,
2013-01-23 22:06:00,9.0,-10.0,30.02,NNE,14,6.0,-999.0,41,-99.99,,,0.00,weatherlink.com 1.10,2013-01-24 03:06:00,
2013-01-23 22:21:00,8.8,-11.0,30.03,North,6,5.0,-999.0,41,-99.99,,,0.00,weatherlink.com 1.10,2013-01-24 03:21:00,
2013-01-23 22:36:00,8.6,-10.0,30.02,North,359,1.0,-999.0,42,-99.99,,,0.00,weatherlink.com 1.10,2013-01-24 03:36:00,
2013-01-23 22:52:00,8.4,-10.0,30.02,NNE,13,4.0,-999.0,43,-99.99,,,0.00,weatherlink.com 1.10,2013-01-24 03:52:00,
2013-01-23 23:07:00,8.1,-11.0,30.02,NNE,14,0.0,-999.0,42,-99.99,,,0.00,weatherlink.com 1.10,2013-01-24 04:07:00,
2013-01-23 23:22:00,7.9,-11.0,30.02,North,6,0.0,-999.0,42,-99.99,,,0.00,weatherlink.com 1.10,2013-01-24 04:22:00,
2013-01-23 23:37:00,7.6,-10.0,30.02,NNE,12,3.0,-999.0,44,-99.99,,,0.00,weatherlink.com 1.10,2013-01-24 04:37:00,
2013-01-23 23:52:00,7.4,-11.0,30.02,North,10,3.0,-999.0,43,-99.99,,,0.00,weatherlink.com 1.10,2013-01-24 04:52:00,